Weather History for Dublin, Ireland

Change the Weather History Date:

Sunday, March 4, 2012

  Actual Average Record
Temperature  
Mean Temperature 38 °F -  
Max Temperature 45 °F 50 °F 55 °F (2003)
Min Temperature 32 °F 38 °F 19 °F (2001)
Degree Days  
Heating Degree Days 26    
Moisture  
Dew Point 33 °F    
Average Humidity 81    
Maximum Humidity 100    
Minimum Humidity 61    
Precipitation  
Precipitation 0.00 in 0.07 in - ()
Sea Level Pressure  
Sea Level Pressure 30.12 in    
Wind  
Wind Speed 12 mph ()    
Max Wind Speed 23 mph    
Max Gust Speed -    
Visibility 6.5 miles    
Events Rain    
Averages and records for this station are not official NWS values.
T = Trace of Precipitation, MM = Missing Value Source: Averaged Metar Reports

Daily Weather History Graph

Daily Weather History Graph

Search for Another Location

Airport:

Trip Planner

Search our weather history database for the weather conditions in past years. The results will help you decide how hot, cold, wet, or windy it might be!

Date:

Astronomy

Mar. 04, 2012 Rise Set
Actual Time 7:05 AM GMT 6:09 PM GMT
Civil Twilight 6:30 AM GMT 6:44 PM GMT
Nautical Twilight 5:50 AM GMT 7:24 PM GMT
Astronomical Twilight 5:09 AM GMT 8:05 PM GMT
Moon 1:37 PM GMT (3/4) 4:47 AM GMT (3/4)
Length of Visible Light 12h 14m
Length of Day
11h 04m
Waxing Gibbous, 82% of the Moon is Illuminated
Mar 4
Waxing Gibbous
Mar 8
Full
Mar 15
Last Quarter
Mar 22
New
Mar 30
First Quarter

Hourly Weather History & Observations

Time (GMT) Temp. Windchill Dew Point Humidity Pressure Visibility Wind Dir Wind Speed Gust Speed Precip Events Conditions
12:00 AM 39 °F - 35 °F 81% 30.03 in 7 mi WNW 11.2 mph - - Rain Light Rain
12:00 AM 39.2 °F 32.0 °F 35.6 °F 87% 30.01 in 6.2 mi WNW 11.5 mph - N/A Rain Light Rain
12:30 AM 39.2 °F 34.2 °F 35.6 °F 87% 30.01 in 6.2 mi West 6.9 mph - N/A Rain Light Rain
1:00 AM 39.2 °F 30.8 °F 33.8 °F 81% 30.01 in 6.2 mi West 15.0 mph - N/A Rain Light Rain
1:30 AM 37.4 °F 29.8 °F 33.8 °F 87% 30.01 in 6.2 mi West 11.5 mph - N/A Rain Light Rain
2:00 AM 37.4 °F 33.8 °F 33.8 °F 87% 30.01 in 6.2 mi West 4.6 mph - N/A Rain Light Rain
2:30 AM 37.4 °F 31.4 °F 33.8 °F 87% 30.01 in 6.2 mi SW 8.1 mph - N/A   Mostly Cloudy
3:00 AM 37.4 °F 30.3 °F 33.8 °F 87% 30.01 in 6.2 mi WSW 10.4 mph - N/A   Mostly Cloudy
3:30 AM 37.4 °F 32.1 °F 33.8 °F 87% 29.98 in 6.2 mi WSW 6.9 mph - N/A   Mostly Cloudy
4:00 AM 37.4 °F 30.3 °F 33.8 °F 87% 30.01 in 6.2 mi West 10.4 mph - N/A   Scattered Clouds
4:30 AM 35.6 °F 27.5 °F 33.8 °F 93% 30.01 in 6.2 mi West 11.5 mph - N/A   Scattered Clouds
5:00 AM 35.6 °F 28.6 °F 33.8 °F 93% 30.01 in 6.2 mi WSW 9.2 mph - N/A   Scattered Clouds
5:30 AM 33.8 °F 25.3 °F 33.8 °F 100% 30.01 in 6.2 mi West 11.5 mph - N/A   Partly Cloudy
6:00 AM 33 °F - 32 °F 96% 30.04 in 19 mi West 11.2 mph - -   Partly Cloudy
6:00 AM 33.8 °F 25.8 °F 32.0 °F 93% 30.01 in 6.2 mi West 10.4 mph - N/A   Partly Cloudy
6:30 AM 32.0 °F 24.2 °F 32.0 °F 100% 30.04 in 6.2 mi West 9.2 mph - N/A   Partly Cloudy
7:00 AM 32.0 °F 24.2 °F 32.0 °F 100% 30.04 in 6.2 mi West 9.2 mph - N/A   Partly Cloudy
7:30 AM 32.0 °F 23.6 °F 32.0 °F 100% 30.04 in 6.2 mi West 10.4 mph - N/A   Partly Cloudy
8:00 AM 32.0 °F 23.0 °F 32.0 °F 100% 30.06 in 6.2 mi West 11.5 mph - N/A   Partly Cloudy
8:30 AM 33.8 °F 25.3 °F 33.8 °F 100% 30.06 in 6.2 mi West 11.5 mph - N/A   Partly Cloudy
9:00 AM 35.6 °F 27.1 °F 33.8 °F 93% 30.09 in 6.2 mi WNW 12.7 mph - N/A   Partly Cloudy
9:30 AM 37.4 °F 28.5 °F 33.8 °F 87% 30.09 in 6.2 mi WNW 15.0 mph - N/A   Partly Cloudy
10:00 AM 37.4 °F 27.8 °F 33.8 °F 87% 30.09 in 6.2 mi WNW 17.3 mph - N/A   Partly Cloudy
10:30 AM 39.2 °F 30.2 °F 35.6 °F 87% 30.12 in 6.2 mi WNW 17.3 mph - N/A   Partly Cloudy
11:00 AM 41.0 °F 32.5 °F 35.6 °F 81% 30.12 in 6.2 mi WNW 17.3 mph - N/A   Partly Cloudy
11:30 AM 41.0 °F 32.5 °F 35.6 °F 81% 30.12 in 6.2 mi West 17.3 mph - N/A   Partly Cloudy
12:00 PM 43 °F - 34 °F 61% 30.15 in 44 mi WNW 15.7 mph - -   Scattered Clouds
12:00 PM 42.8 °F 34.8 °F 33.8 °F 70% 30.12 in 6.2 mi WNW 17.3 mph - N/A   Partly Cloudy
12:30 PM 42.8 °F 34.5 °F 32.0 °F 66% 30.12 in 6.2 mi WNW 18.4 mph - N/A   Scattered Clouds
1:00 PM 42.8 °F 34.0 °F 32.0 °F 66% 30.15 in 6.2 mi WNW 20.7 mph - N/A   Scattered Clouds
1:30 PM 42.8 °F 34.5 °F 32.0 °F 66% 30.15 in 6.2 mi NW 18.4 mph - N/A   Scattered Clouds
2:00 PM 44.6 °F 36.4 °F 32.0 °F 61% 30.15 in 6.2 mi WNW 20.7 mph - N/A   Scattered Clouds
2:30 PM 42.8 °F 33.8 °F 30.2 °F 61% 30.15 in 6.2 mi West 21.9 mph - N/A   Scattered Clouds
3:00 PM 41.0 °F 31.1 °F 30.2 °F 65% 30.15 in 6.2 mi WNW 23.0 mph - N/A   Scattered Clouds
3:30 PM 44.6 °F 37.4 °F 32.0 °F 61% 30.15 in 6.2 mi WNW 16.1 mph - N/A   Partly Cloudy
4:00 PM 44.6 °F 37.4 °F 32.0 °F 61% 30.18 in 6.2 mi West 16.1 mph - N/A   Partly Cloudy
4:30 PM 41.0 °F 31.9 °F 32.0 °F 70% 30.18 in 6.2 mi WNW 19.6 mph - N/A   Scattered Clouds
5:00 PM 41.0 °F 33.1 °F 32.0 °F 70% 30.18 in 6.2 mi WNW 15.0 mph - N/A   Partly Cloudy
5:30 PM 41.0 °F 32.8 °F 30.2 °F 65% 30.21 in 6.2 mi WNW 16.1 mph - N/A   Partly Cloudy
6:00 PM 39 °F - 30 °F 61% 30.25 in 44 mi WNW 13.4 mph - -   Partly Cloudy
6:00 PM 39.2 °F 31.2 °F 30.2 °F 70% 30.21 in 6.2 mi WNW 13.8 mph - N/A   Partly Cloudy
6:30 PM 37.4 °F 29.8 °F 30.2 °F 75% 30.21 in 6.2 mi West 11.5 mph - N/A   Partly Cloudy
7:00 PM 37.4 °F 29.3 °F 30.2 °F 75% 30.24 in 6.2 mi West 12.7 mph - N/A   Partly Cloudy
7:30 PM 37.4 °F 30.3 °F 30.2 °F 75% 30.24 in 6.2 mi West 10.4 mph - N/A   Partly Cloudy
8:00 PM 37.4 °F 29.8 °F 32.0 °F 81% 30.24 in 6.2 mi West 11.5 mph - N/A   Partly Cloudy
8:30 PM 37.4 °F 28.9 °F 32.0 °F 81% 30.24 in 6.2 mi West 13.8 mph - N/A   Partly Cloudy
9:00 PM 37.4 °F 28.5 °F 32.0 °F 81% 30.24 in - West 15.0 mph - N/A   Clear
9:30 PM 37.4 °F 27.5 °F 32.0 °F 81% 30.24 in - West 18.4 mph - N/A   Clear
10:00 PM 37.4 °F 27.2 °F 32.0 °F 81% 30.27 in 6.2 mi West 19.6 mph - N/A   Partly Cloudy
10:30 PM 37.4 °F 28.2 °F 32.0 °F 81% 30.27 in 6.2 mi West 16.1 mph - N/A   Partly Cloudy
11:00 PM 35.6 °F 25.5 °F 32.0 °F 87% 30.27 in 6.2 mi West 17.3 mph - N/A   Partly Cloudy
11:30 PM 35.6 °F 25.9 °F 32.0 °F 87% 30.27 in - West 16.1 mph - N/A   Clear